Time,TemperatureF,DewpointF,PressureIn,WindDirection,WindDirectionDegrees,WindSpeedMPH,WindSpeedGustMPH,Humidity,HourlyPrecipIn,Conditions,Clouds,dailyrainin,SolarRadiationWatts/m^2,SoftwareType,DateUTC
2013-10-25 00:08:00,37.8,27.0,30.56,West,281,0.0,1.0,65,0.00,,,0.00,0,weatherlink.com 1.10,2013-10-25 06:08:00,
2013-10-25 00:23:00,38.4,27.0,30.56,SSE,151,2.0,4.0,64,0.00,,,0.00,0,weatherlink.com 1.10,2013-10-25 06:23:00,
2013-10-25 00:38:00,42.1,28.0,30.56,SE,136,0.0,4.0,57,0.00,,,0.00,0,weatherlink.com 1.10,2013-10-25 06:38:00,
2013-10-25 00:53:00,42.5,28.0,30.55,ENE,59,0.0,2.0,56,0.00,,,0.00,0,weatherlink.com 1.10,2013-10-25 06:53:00,
2013-10-25 01:08:00,41.6,27.0,30.55,East,88,0.0,1.0,57,0.00,,,0.00,0,weatherlink.com 1.10,2013-10-25 07:08:00,
2013-10-25 01:23:00,41.4,27.0,30.55,East,88,0.0,0.0,58,0.00,,,0.00,0,weatherlink.com 1.10,2013-10-25 07:23:00,
2013-10-25 01:38:00,41.4,28.0,30.56,East,88,0.0,1.0,60,0.00,,,0.00,0,weatherlink.com 1.10,2013-10-25 07:38:00,
2013-10-25 01:53:00,40.6,28.0,30.56,East,88,0.0,0.0,62,0.00,,,0.00,0,weatherlink.com 1.10,2013-10-25 07:53:00,
2013-10-25 02:08:00,41.3,29.0,30.56,NW,315,1.0,2.0,61,0.00,,,0.00,0,weatherlink.com 1.10,2013-10-25 08:08:00,
2013-10-25 02:23:00,41.0,28.0,30.55,NW,315,0.0,0.0,61,0.00,,,0.00,0,weatherlink.com 1.10,2013-10-25 08:23:00,
2013-10-25 02:38:00,40.9,29.0,30.56,NW,315,0.0,0.0,62,0.00,,,0.00,0,weatherlink.com 1.10,2013-10-25 08:38:00,
2013-10-25 02:53:00,40.5,29.0,30.55,NW,315,0.0,0.0,65,0.00,,,0.00,0,weatherlink.com 1.10,2013-10-25 08:53:00,
2013-10-25 03:08:00,40.8,31.0,30.55,WNW,298,0.0,4.0,69,0.00,,,0.00,0,weatherlink.com 1.10,2013-10-25 09:08:00,
2013-10-25 03:23:00,40.1,32.0,30.54,SSE,168,1.0,3.0,73,0.00,,,0.00,0,weatherlink.com 1.10,2013-10-25 09:23:00,
2013-10-25 03:38:00,40.0,32.0,30.54,SSW,202,0.0,3.0,74,0.00,,,0.00,0,weatherlink.com 1.10,2013-10-25 09:38:00,
2013-10-25 03:53:00,40.4,33.0,30.54,WNW,285,0.0,4.0,75,0.00,,,0.00,0,weatherlink.com 1.10,2013-10-25 09:53:00,
2013-10-25 04:08:00,40.3,34.0,30.53,West,262,0.0,3.0,78,0.00,,,0.00,0,weatherlink.com 1.10,2013-10-25 10:08:00,
2013-10-25 04:23:00,39.6,35.0,30.52,West,261,0.0,0.0,83,0.00,,,0.00,0,weatherlink.com 1.10,2013-10-25 10:23:00,
2013-10-25 04:38:00,38.4,35.0,30.51,SSW,206,0.0,2.0,88,0.01,,,0.01,0,weatherlink.com 1.10,2013-10-25 10:38:00,
2013-10-25 04:53:00,37.6,35.0,30.51,East,93,0.0,0.0,91,0.01,,,0.01,0,weatherlink.com 1.10,2013-10-25 10:53:00,
2013-10-25 05:08:00,37.1,35.0,30.50,East,93,0.0,0.0,92,0.02,,,0.02,0,weatherlink.com 1.10,2013-10-25 11:08:00,
2013-10-25 05:23:00,37.2,35.0,30.51,East,93,0.0,1.0,93,0.02,,,0.02,0,weatherlink.com 1.10,2013-10-25 11:23:00,
2013-10-25 05:38:00,37.3,36.0,30.50,East,93,0.0,0.0,93,0.01,,,0.02,0,weatherlink.com 1.10,2013-10-25 11:38:00,
2013-10-25 05:53:00,37.3,36.0,30.50,SSE,149,0.0,2.0,93,0.01,,,0.02,0,weatherlink.com 1.10,2013-10-25 11:53:00,
2013-10-25 06:08:00,37.4,36.0,30.50,ENE,75,0.0,2.0,93,0.01,,,0.03,0,weatherlink.com 1.10,2013-10-25 12:08:00,
2013-10-25 06:23:00,37.1,35.0,30.49,SE,133,0.0,4.0,93,0.02,,,0.04,0,weatherlink.com 1.10,2013-10-25 12:23:00,
2013-10-25 06:38:00,36.9,35.0,30.48,East,100,0.0,1.0,93,0.03,,,0.05,0,weatherlink.com 1.10,2013-10-25 12:38:00,
2013-10-25 06:53:00,37.0,36.0,30.47,East,89,0.0,1.0,94,0.03,,,0.05,0,weatherlink.com 1.10,2013-10-25 12:53:00,
2013-10-25 07:08:00,37.2,36.0,30.47,ESE,103,0.0,1.0,94,0.02,,,0.05,0,weatherlink.com 1.10,2013-10-25 13:08:00,
2013-10-25 07:23:00,36.9,35.0,30.48,ESE,103,0.0,0.0,94,0.01,,,0.05,0,weatherlink.com 1.10,2013-10-25 13:23:00,
2013-10-25 07:38:00,36.8,36.0,30.48,ESE,103,0.0,0.0,95,0.00,,,0.05,0,weatherlink.com 1.10,2013-10-25 13:38:00,
2013-10-25 07:53:00,36.8,36.0,30.48,ESE,103,0.0,0.0,95,0.00,,,0.05,0,weatherlink.com 1.10,2013-10-25 13:53:00,
2013-10-25 08:08:00,36.9,36.0,30.48,ESE,103,0.0,0.0,95,0.00,,,0.05,12,weatherlink.com 1.10,2013-10-25 14:08:00,
2013-10-25 08:23:00,37.2,36.0,30.49,SSW,192,1.0,2.0,95,0.00,,,0.05,19,weatherlink.com 1.10,2013-10-25 14:23:00,
2013-10-25 08:38:00,37.4,36.0,30.49,WSW,244,0.0,3.0,95,0.00,,,0.05,26,weatherlink.com 1.10,2013-10-25 14:38:00,
2013-10-25 08:53:00,37.5,36.0,30.49,West,271,0.0,2.0,93,0.00,,,0.05,35,weatherlink.com 1.10,2013-10-25 14:53:00,
2013-10-25 09:08:00,37.4,36.0,30.50,West,273,1.0,3.0,93,0.00,,,0.05,40,weatherlink.com 1.10,2013-10-25 15:08:00,
2013-10-25 09:24:00,37.2,35.0,30.49,ESE,119,0.0,4.0,92,0.00,,,0.05,33,weatherlink.com 1.10,2013-10-25 15:24:00,
2013-10-25 09:39:00,37.3,36.0,30.48,East,91,0.0,2.0,93,0.00,,,0.05,58,weatherlink.com 1.10,2013-10-25 15:39:00,
2013-10-25 09:54:00,38.0,37.0,30.48,East,91,0.0,1.0,94,0.00,,,0.05,97,weatherlink.com 1.10,2013-10-25 15:54:00,
2013-10-25 10:09:00,38.8,37.0,30.47,East,91,1.0,1.0,93,0.00,,,0.05,121,weatherlink.com 1.10,2013-10-25 16:09:00,
2013-10-25 10:24:00,39.3,37.0,30.47,North,360,0.0,2.0,92,0.00,,,0.05,169,weatherlink.com 1.10,2013-10-25 16:24:00,
2013-10-25 10:39:00,39.7,37.0,30.46,East,100,0.0,5.0,88,0.00,,,0.05,181,weatherlink.com 1.10,2013-10-25 16:39:00,
2013-10-25 10:54:00,40.7,37.0,30.45,West,281,0.0,2.0,87,0.00,,,0.05,149,weatherlink.com 1.10,2013-10-25 16:54:00,
2013-10-25 11:09:00,41.0,37.0,30.46,West,279,2.0,3.0,86,0.00,,,0.05,294,weatherlink.com 1.10,2013-10-25 17:09:00,
2013-10-25 11:24:00,42.4,38.0,30.45,North,360,1.0,5.0,83,0.00,,,0.05,246,weatherlink.com 1.10,2013-10-25 17:24:00,
2013-10-25 11:39:00,45.1,40.0,30.45,North,360,2.0,4.0,82,0.00,,,0.05,751,weatherlink.com 1.10,2013-10-25 17:39:00,
2013-10-25 11:54:00,42.4,38.0,30.46,West,279,1.0,6.0,83,0.00,,,0.05,77,weatherlink.com 1.10,2013-10-25 17:54:00,
2013-10-25 12:09:00,42.6,38.0,30.45,West,279,2.0,5.0,82,0.00,,,0.05,88,weatherlink.com 1.10,2013-10-25 18:09:00,
2013-10-25 12:24:00,42.4,38.0,30.45,SW,232,3.0,5.0,84,0.00,,,0.05,72,weatherlink.com 1.10,2013-10-25 18:24:00,
2013-10-25 12:39:00,42.7,38.0,30.45,West,279,1.0,2.0,82,0.00,,,0.05,165,weatherlink.com 1.10,2013-10-25 18:39:00,
2013-10-25 12:54:00,45.1,40.0,30.44,SW,232,2.0,4.0,81,0.00,,,0.05,199,weatherlink.com 1.10,2013-10-25 18:54:00,
2013-10-25 13:09:00,45.6,39.0,30.43,North,360,3.0,6.0,78,0.00,,,0.05,854,weatherlink.com 1.10,2013-10-25 19:09:00,
2013-10-25 13:24:00,46.7,37.0,30.43,North,360,2.0,8.0,70,0.00,,,0.05,747,weatherlink.com 1.10,2013-10-25 19:24:00,
2013-10-25 13:39:00,48.2,38.0,30.42,North,360,2.0,8.0,68,0.00,,,0.05,197,weatherlink.com 1.10,2013-10-25 19:39:00,
2013-10-25 13:54:00,46.6,36.0,30.42,North,360,4.0,7.0,68,0.00,,,0.05,134,weatherlink.com 1.10,2013-10-25 19:54:00,
2013-10-25 14:09:00,46.4,37.0,30.41,WNW,283,3.0,4.0,70,0.00,,,0.05,127,weatherlink.com 1.10,2013-10-25 20:09:00,
2013-10-25 14:24:00,45.3,35.0,30.41,West,277,2.0,5.0,68,0.00,,,0.05,132,weatherlink.com 1.10,2013-10-25 20:24:00,
2013-10-25 14:39:00,46.3,35.0,30.41,WNW,296,1.0,4.0,65,0.00,,,0.05,123,weatherlink.com 1.10,2013-10-25 20:39:00,
2013-10-25 14:54:00,46.1,36.0,30.41,West,263,0.0,5.0,67,0.00,,,0.05,181,weatherlink.com 1.10,2013-10-25 20:54:00,
2013-10-25 15:09:00,46.8,36.0,30.41,West,263,2.0,4.0,66,0.00,,,0.05,141,weatherlink.com 1.10,2013-10-25 21:09:00,
2013-10-25 15:39:00,46.6,36.0,30.42,WNW,296,3.0,4.0,68,0.00,,,0.05,220,weatherlink.com 1.10,2013-10-25 21:39:00,
2013-10-25 15:54:00,46.3,36.0,30.41,WSW,253,0.0,4.0,68,0.00,,,0.05,139,weatherlink.com 1.10,2013-10-25 21:54:00,
2013-10-25 16:09:00,46.5,35.0,30.41,WNW,300,0.0,4.0,65,0.00,,,0.05,95,weatherlink.com 1.10,2013-10-25 22:09:00,
2013-10-25 16:24:00,49.4,36.0,30.41,WSW,253,1.0,5.0,61,0.00,,,0.05,290,weatherlink.com 1.10,2013-10-25 22:24:00,
2013-10-25 16:54:00,47.3,35.0,30.41,North,360,2.0,4.0,63,0.00,,,0.05,86,weatherlink.com 1.10,2013-10-25 22:54:00,
2013-10-25 17:09:00,45.8,35.0,30.42,WNW,298,1.0,2.0,66,0.00,,,0.05,77,weatherlink.com 1.10,2013-10-25 23:09:00,
2013-10-25 17:24:00,45.0,35.0,30.42,WNW,298,0.0,2.0,69,0.00,,,0.05,12,weatherlink.com 1.10,2013-10-25 23:24:00,
2013-10-25 17:39:00,42.8,35.0,30.43,WNW,298,0.0,0.0,74,0.00,,,0.05,9,weatherlink.com 1.10,2013-10-25 23:39:00,
2013-10-25 17:54:00,42.6,35.0,30.43,WNW,296,0.0,4.0,75,0.00,,,0.05,5,weatherlink.com 1.10,2013-10-25 23:54:00,
2013-10-25 18:09:00,42.4,36.0,30.43,WNW,296,0.0,1.0,77,0.00,,,0.05,0,weatherlink.com 1.10,2013-10-26 00:09:00,
2013-10-25 18:25:00,41.3,35.0,30.44,East,90,0.0,1.0,79,0.00,,,0.05,0,weatherlink.com 1.10,2013-10-26 00:25:00,
2013-10-25 18:40:00,40.5,35.0,30.45,East,91,0.0,0.0,81,0.00,,,0.05,0,weatherlink.com 1.10,2013-10-26 00:40:00,
2013-10-25 18:54:00,40.5,34.0,30.45,North,360,1.0,4.0,79,0.00,,,0.05,0,weatherlink.com 1.10,2013-10-26 00:54:00,
2013-10-25 19:10:00,40.3,34.0,30.46,North,360,0.0,0.0,79,0.00,,,0.05,0,weatherlink.com 1.10,2013-10-26 01:10:00,
2013-10-25 19:25:00,40.2,35.0,30.47,North,360,0.0,0.0,81,0.00,,,0.05,0,weatherlink.com 1.10,2013-10-26 01:25:00,
2013-10-25 19:40:00,40.1,35.0,30.47,North,360,0.0,0.0,81,0.00,,,0.05,0,weatherlink.com 1.10,2013-10-26 01:40:00,
2013-10-25 19:55:00,39.6,35.0,30.48,North,360,0.0,0.0,82,0.00,,,0.05,0,weatherlink.com 1.10,2013-10-26 01:55:00,
2013-10-25 20:10:00,39.7,35.0,30.48,North,360,0.0,0.0,83,0.00,,,0.05,0,weatherlink.com 1.10,2013-10-26 02:10:00,
2013-10-25 20:25:00,39.9,36.0,30.48,North,360,0.0,0.0,84,0.00,,,0.05,0,weatherlink.com 1.10,2013-10-26 02:25:00,
2013-10-25 20:40:00,40.0,36.0,30.49,North,360,0.0,0.0,84,0.00,,,0.05,0,weatherlink.com 1.10,2013-10-26 02:40:00,
2013-10-25 20:55:00,39.9,36.0,30.49,North,360,0.0,0.0,84,0.00,,,0.05,0,weatherlink.com 1.10,2013-10-26 02:55:00,
2013-10-25 21:10:00,39.3,36.0,30.50,North,360,0.0,0.0,87,0.00,,,0.05,0,weatherlink.com 1.10,2013-10-26 03:10:00,
2013-10-25 21:25:00,37.2,35.0,30.50,WNW,295,0.0,0.0,92,0.01,,,0.06,0,weatherlink.com 1.10,2013-10-26 03:25:00,
2013-10-25 21:40:00,37.0,35.0,30.50,WNW,288,0.0,1.0,93,0.01,,,0.06,0,weatherlink.com 1.10,2013-10-26 03:40:00,
2013-10-25 21:55:00,37.2,36.0,30.51,WNW,288,0.0,0.0,94,0.01,,,0.06,0,weatherlink.com 1.10,2013-10-26 03:55:00,
2013-10-25 22:10:00,37.4,36.0,30.52,WNW,288,0.0,0.0,94,0.02,,,0.07,0,weatherlink.com 1.10,2013-10-26 04:10:00,
2013-10-25 22:25:00,36.9,35.0,30.51,West,269,0.0,2.0,93,0.01,,,0.07,0,weatherlink.com 1.10,2013-10-26 04:25:00,
2013-10-25 22:40:00,36.4,35.0,30.51,West,269,0.0,0.0,94,0.01,,,0.07,0,weatherlink.com 1.10,2013-10-26 04:40:00,
2013-10-25 22:55:00,35.9,34.0,30.51,West,269,0.0,0.0,94,0.01,,,0.07,0,weatherlink.com 1.10,2013-10-26 04:55:00,
2013-10-25 23:10:00,35.5,34.0,30.51,West,269,0.0,0.0,95,0.00,,,0.07,0,weatherlink.com 1.10,2013-10-26 05:10:00,
2013-10-25 23:25:00,35.3,34.0,30.52,West,269,0.0,0.0,95,0.00,,,0.07,0,weatherlink.com 1.10,2013-10-26 05:25:00,
2013-10-25 23:40:00,35.2,34.0,30.52,West,269,0.0,0.0,95,0.00,,,0.07,0,weatherlink.com 1.10,2013-10-26 05:40:00,
2013-10-25 23:55:00,34.6,33.0,30.52,West,269,0.0,0.0,95,0.00,,,0.07,0,weatherlink.com 1.10,2013-10-26 05:55:00,